CZ-2C R/B, 43610

Orbit data source: Space-Track

CZ-2C R/B, 43610 is space debris in SSO originally from a launch on Fri, 07 Sep 2018 UTC launched from the Taiyaun Space Center, China (TSC). Debris objects in space refer to the collection of defunct objects orbiting the Earth. Examples of debris include non-operational satellites, rocket bodies, and fragments generated from explosions, collisions, or faulty payload assembly.

Loading next visibility...
Identifier
43610, 2018-068B
Orbit
SSO
Country
Flag of CNCN / PRC
Related business
Manufacturer
CALT
Mission
Spacecraft
Bus & Motor
CZ-2 STAGE 2, Unknown motor
Mass
~3,800 kg wet, ~3,800 kg dry
Launch date (UTC)
2018-09-07 (8 years ago)
Launch vehicle
Unknown
Launch site
Taiyaun Space Center, China (TSC)
Object type
Payload
Rocket body
Debris
Shape & HBR
Cyl, 3.7 m
Radar Cross Section
23.715 m², Large (>1 m²)

Expand to show TLE details & history
Last TLE update: 2 days ago

TLE from 2 days ago
0 CZ-2C R/B
1 43610U 18068B   26171.33800407  .00000143  00000-0  42370-4 0  9997
2 43610  98.7181  16.8079 0086170 340.7916  19.0038 14.56616589413351
Epoch: 2026-06-20T08:06Z
TLE epoch observation values (Epoch: 2026-06-20T08:06:43.551Z)
Latitude
-0.00003°
Longitude
-13.42762°
Altitude
649.427 km
Speed
7.564 km/s
True Right ascension
01h 07m 13s
True Declination
0° 00' 00"
Sunlit
Object was in daylight at epoch
Visualization orbit readout
Latitude
Unknown
Longitude
Unknown
Altitude
Unknown
Speed
Unknown
Apparent Right ascension
Unknown
Apparent Declination
Unknown
Sunlit
N/A
Visualization observer readout
Local Sidereal Time
21:41:35
Azimuth
Unknown
Elevation
Unknown
Doppler factor
Unknown
Orbital elements
Apogee altitude
762.233 km
Perigee altitude
640.227 km
Semi-major axis
7,079.367 km
Eccentricity
0.00862
Inclination
98.7181°
RAAN
16.8079°
Arg. of periapsis
340.7916°
True anomaly
19.32864°
Mean anomaly
19.0038°
Eccentric anomaly
19.16589°
Mean motion
3.64377 °/min
Orbital period
98.8 mins
BSTAR
0.00004237
Loading maneuver chart data...
Computing Atmospheric mass density...
Loading historical data...
Loading historical data...
Loading historical data...
Loading historical data...
Loading historical data...
Loading historical data...
Loading historical data...
Other satellites on launch #68 in the year 2018 (2018-09-07 UTC)

Documentation

Showing up to 5 results
|